Time,TemperatureF,DewpointF,PressureIn,WindDirection,WindDirectionDegrees,WindSpeedMPH,WindSpeedGustMPH,Humidity,HourlyPrecipIn,Conditions,Clouds,dailyrainin,SoftwareType,DateUTC
2013-07-25 00:02:00,70.0,68.0,29.95,NNW,340,0.0,-999.0,93,-99.99,,,-99.99,,2013-07-25 05:02:00,
2013-07-25 00:12:00,70.0,68.0,29.95,NNW,340,0.0,-999.0,94,-99.99,,,-99.99,,2013-07-25 05:12:00,
2013-07-25 00:22:00,70.0,68.0,29.95,NNW,340,0.0,-999.0,94,-99.99,,,-99.99,,2013-07-25 05:22:00,
2013-07-25 00:32:00,70.0,68.0,29.95,NNW,340,0.0,-999.0,94,-99.99,,,-99.99,,2013-07-25 05:32:00,
2013-07-25 00:43:00,70.0,68.0,29.95,NNW,340,0.0,-999.0,94,-99.99,,,-99.99,,2013-07-25 05:43:00,
2013-07-25 00:52:00,70.0,68.0,29.96,NNW,340,0.0,-999.0,94,-99.99,,,-99.99,,2013-07-25 05:52:00,
2013-07-25 01:02:00,70.0,68.0,29.96,NNW,340,0.0,-999.0,94,-99.99,,,-99.99,,2013-07-25 06:02:00,
2013-07-25 01:12:00,70.0,68.0,29.96,NNW,340,0.0,-999.0,94,-99.99,,,-99.99,,2013-07-25 06:12:00,
2013-07-25 01:22:00,70.0,68.0,29.97,NNW,340,0.0,-999.0,94,-99.99,,,-99.99,,2013-07-25 06:22:00,
2013-07-25 01:32:00,70.0,68.0,29.96,NNW,340,0.0,-999.0,94,-99.99,,,-99.99,,2013-07-25 06:32:00,
2013-07-25 01:42:00,70.0,68.0,29.96,NNW,340,0.0,-999.0,94,-99.99,,,-99.99,,2013-07-25 06:42:00,
2013-07-25 01:52:00,70.0,68.0,29.97,NNW,340,0.0,-999.0,94,-99.99,,,-99.99,,2013-07-25 06:52:00,
2013-07-25 02:02:00,69.0,67.0,29.97,NNW,340,0.0,-999.0,94,-99.99,,,-99.99,,2013-07-25 07:02:00,
2013-07-25 02:12:00,69.0,67.0,29.97,NNW,340,0.0,-999.0,94,-99.99,,,-99.99,,2013-07-25 07:12:00,
2013-07-25 02:22:00,69.0,68.0,29.97,NNW,340,0.0,-999.0,95,-99.99,,,-99.99,,2013-07-25 07:22:00,
2013-07-25 02:33:00,69.0,67.0,29.97,NNW,340,0.0,-999.0,94,-99.99,,,-99.99,,2013-07-25 07:33:00,
2013-07-25 02:43:00,69.0,67.0,29.97,NNW,340,0.0,-999.0,94,-99.99,,,-99.99,,2013-07-25 07:43:00,
2013-07-25 02:53:00,68.0,66.0,29.97,NNW,340,0.0,-999.0,94,-99.99,,,-99.99,,2013-07-25 07:53:00,
2013-07-25 03:02:00,68.0,66.0,29.97,NNW,340,0.0,-999.0,94,-99.99,,,-99.99,,2013-07-25 08:02:00,
2013-07-25 03:12:00,68.0,66.0,29.97,NNW,340,0.0,-999.0,94,-99.99,,,-99.99,,2013-07-25 08:12:00,
2013-07-25 03:22:00,67.0,65.0,29.97,NNW,340,0.0,-999.0,94,-99.99,,,-99.99,,2013-07-25 08:22:00,
2013-07-25 03:32:00,67.0,65.0,29.98,NNW,340,0.0,-999.0,94,-99.99,,,-99.99,,2013-07-25 08:32:00,
2013-07-25 03:44:00,67.0,65.0,29.98,NNW,340,0.0,-999.0,94,-99.99,,,-99.99,,2013-07-25 08:44:00,
2013-07-25 03:52:00,66.0,65.0,29.97,NNW,340,0.0,-999.0,95,-99.99,,,-99.99,,2013-07-25 08:52:00,
2013-07-25 04:02:00,66.0,64.0,29.98,NNW,340,0.0,-999.0,94,-99.99,,,-99.99,,2013-07-25 09:02:00,
2013-07-25 04:12:00,66.0,64.0,29.98,NNW,340,0.0,-999.0,94,-99.99,,,-99.99,,2013-07-25 09:12:00,
2013-07-25 04:22:00,66.0,65.0,29.98,NNW,340,0.0,-999.0,95,-99.99,,,-99.99,,2013-07-25 09:22:00,
2013-07-25 04:33:00,65.0,64.0,29.99,NNW,340,0.0,-999.0,95,-99.99,,,-99.99,,2013-07-25 09:33:00,
2013-07-25 04:43:00,65.0,64.0,29.99,NNW,340,0.0,-999.0,95,-99.99,,,-99.99,,2013-07-25 09:43:00,
2013-07-25 04:53:00,65.0,64.0,29.99,NNW,340,0.0,-999.0,95,-99.99,,,-99.99,,2013-07-25 09:53:00,
2013-07-25 05:02:00,64.0,62.0,29.99,NNW,340,0.0,-999.0,94,-99.99,,,-99.99,,2013-07-25 10:02:00,
2013-07-25 05:12:00,64.0,62.0,29.99,NNW,340,0.0,-999.0,94,-99.99,,,-99.99,,2013-07-25 10:12:00,
2013-07-25 05:22:00,64.0,63.0,29.99,NNW,340,0.0,-999.0,95,-99.99,,,-99.99,,2013-07-25 10:22:00,
2013-07-25 05:32:00,64.0,63.0,30.00,NNW,340,0.0,-999.0,95,-99.99,,,-99.99,,2013-07-25 10:32:00,
2013-07-25 05:42:00,64.0,63.0,30.00,NNW,340,0.0,-999.0,95,-99.99,,,-99.99,,2013-07-25 10:42:00,
2013-07-25 05:53:00,64.0,63.0,30.00,NNW,340,0.0,-999.0,95,-99.99,,,-99.99,,2013-07-25 10:53:00,
2013-07-25 06:02:00,63.0,62.0,30.00,NNW,340,0.0,-999.0,95,-99.99,,,-99.99,,2013-07-25 11:02:00,
2013-07-25 06:12:00,63.0,62.0,30.00,NNW,340,0.0,-999.0,95,-99.99,,,-99.99,,2013-07-25 11:12:00,
2013-07-25 06:22:00,63.0,62.0,30.01,NNW,340,0.0,-999.0,95,-99.99,,,-99.99,,2013-07-25 11:22:00,
2013-07-25 06:32:00,63.0,62.0,30.00,NNW,340,0.0,-999.0,95,-99.99,,,-99.99,,2013-07-25 11:32:00,
2013-07-25 06:43:00,63.0,62.0,30.00,NNW,340,0.0,-999.0,95,-99.99,,,-99.99,,2013-07-25 11:43:00,
2013-07-25 06:52:00,62.0,61.0,30.01,NNW,340,0.0,-999.0,95,-99.99,,,-99.99,,2013-07-25 11:52:00,
2013-07-25 07:02:00,62.0,61.0,30.02,NNW,340,0.0,-999.0,95,-99.99,,,-99.99,,2013-07-25 12:02:00,
2013-07-25 07:12:00,62.0,61.0,30.02,NNW,340,0.0,-999.0,95,-99.99,,,-99.99,,2013-07-25 12:12:00,
2013-07-25 07:22:00,63.0,62.0,30.02,NNW,340,0.0,-999.0,95,-99.99,,,-99.99,,2013-07-25 12:22:00,
2013-07-25 07:32:00,63.0,62.0,30.03,ENE,61,0.0,-999.0,95,-99.99,,,-99.99,,2013-07-25 12:32:00,
2013-07-25 07:45:00,63.0,62.0,30.03,ENE,61,0.0,-999.0,95,-99.99,,,-99.99,,2013-07-25 12:45:00,
2013-07-25 07:53:00,64.0,62.0,30.03,WSW,238,0.0,-999.0,94,-99.99,,,-99.99,,2013-07-25 12:53:00,
2013-07-25 08:02:00,65.0,63.0,30.05,WSW,238,0.0,-999.0,94,-99.99,,,-99.99,,2013-07-25 13:02:00,
2013-07-25 08:12:00,65.0,63.0,30.05,WSW,238,0.0,-999.0,94,-99.99,,,-99.99,,2013-07-25 13:12:00,
2013-07-25 08:22:00,66.0,64.0,30.05,SSE,163,0.0,-999.0,92,-99.99,,,-99.99,,2013-07-25 13:22:00,
2013-07-25 08:33:00,68.0,65.0,30.05,SSE,162,0.0,-999.0,89,-99.99,,,-99.99,,2013-07-25 13:33:00,
2013-07-25 08:43:00,68.0,65.0,30.05,SSE,162,0.0,-999.0,89,-99.99,,,-99.99,,2013-07-25 13:43:00,
2013-07-25 08:53:00,69.0,64.0,30.05,East,90,0.0,-999.0,85,-99.99,,,-99.99,,2013-07-25 13:53:00,
2013-07-25 09:02:00,70.0,64.0,30.04,WSW,256,0.0,-999.0,82,-99.99,,,-99.99,,2013-07-25 14:02:00,
2013-07-25 09:12:00,70.0,64.0,30.04,WSW,256,0.0,-999.0,82,-99.99,,,-99.99,,2013-07-25 14:12:00,
2013-07-25 09:22:00,72.0,64.0,30.04,WSW,256,0.0,-999.0,77,-99.99,,,-99.99,,2013-07-25 14:22:00,
2013-07-25 09:33:00,73.0,65.0,30.04,WSW,256,0.0,-999.0,76,-99.99,,,-99.99,,2013-07-25 14:33:00,
2013-07-25 09:43:00,73.0,65.0,30.04,WSW,256,0.0,-999.0,76,-99.99,,,-99.99,,2013-07-25 14:43:00,
2013-07-25 09:53:00,74.0,64.0,30.04,NE,55,0.0,-999.0,71,-99.99,,,-99.99,,2013-07-25 14:53:00,
2013-07-25 10:02:00,74.0,63.0,30.04,NE,34,0.0,-999.0,69,-99.99,,,-99.99,,2013-07-25 15:02:00,
2013-07-25 10:12:00,74.0,63.0,30.04,NE,34,0.0,-999.0,69,-99.99,,,-99.99,,2013-07-25 15:12:00,
2013-07-25 10:22:00,76.0,64.0,30.05,NE,36,0.0,-999.0,66,-99.99,,,-99.99,,2013-07-25 15:22:00,
2013-07-25 10:32:00,76.0,63.0,30.04,NE,36,0.0,-999.0,65,-99.99,,,-99.99,,2013-07-25 15:32:00,
2013-07-25 10:44:00,76.0,63.0,30.04,NE,36,0.0,-999.0,65,-99.99,,,-99.99,,2013-07-25 15:44:00,
2013-07-25 10:53:00,77.0,63.0,30.05,NE,36,0.0,-999.0,62,-99.99,,,-99.99,,2013-07-25 15:53:00,
2013-07-25 11:02:00,78.0,64.0,30.05,NE,36,0.0,-999.0,63,-99.99,,,-99.99,,2013-07-25 16:02:00,
2013-07-25 11:12:00,78.0,64.0,30.05,NE,36,0.0,-999.0,63,-99.99,,,-99.99,,2013-07-25 16:12:00,
2013-07-25 11:22:00,79.0,64.0,30.05,NE,36,0.0,-999.0,60,-99.99,,,-99.99,,2013-07-25 16:22:00,
2013-07-25 11:33:00,80.0,63.0,30.04,NE,36,0.0,-999.0,57,-99.99,,,-99.99,,2013-07-25 16:33:00,
2013-07-25 11:45:00,80.0,63.0,30.04,NE,36,0.0,-999.0,57,-99.99,,,-99.99,,2013-07-25 16:45:00,
2013-07-25 11:53:00,81.0,64.0,30.04,NE,36,0.0,-999.0,57,-99.99,,,-99.99,,2013-07-25 16:53:00,
2013-07-25 12:03:00,80.0,63.0,30.04,ENE,76,0.0,-999.0,57,-99.99,,,-99.99,,2013-07-25 17:03:00,
2013-07-25 12:12:00,80.0,63.0,30.04,ENE,76,0.0,-999.0,57,-99.99,,,-99.99,,2013-07-25 17:12:00,
2013-07-25 12:22:00,80.0,64.0,30.04,ESE,105,0.0,-999.0,58,-99.99,,,-99.99,,2013-07-25 17:22:00,
2013-07-25 12:32:00,80.0,62.0,30.04,ESE,117,0.0,-999.0,55,-99.99,,,-99.99,,2013-07-25 17:32:00,
2013-07-25 12:43:00,80.0,62.0,30.04,ESE,117,0.0,-999.0,55,-99.99,,,-99.99,,2013-07-25 17:43:00,
2013-07-25 12:53:00,80.0,62.0,30.04,ESE,121,1.0,-999.0,55,-99.99,,,-99.99,,2013-07-25 17:53:00,
2013-07-25 13:02:00,80.0,63.0,30.04,ENE,74,0.0,-999.0,56,-99.99,,,-99.99,,2013-07-25 18:02:00,
2013-07-25 13:12:00,80.0,63.0,30.04,ENE,74,0.0,-999.0,56,-99.99,,,-99.99,,2013-07-25 18:12:00,
2013-07-25 13:22:00,81.0,64.0,30.04,ESE,109,0.0,-999.0,57,-99.99,,,-99.99,,2013-07-25 18:22:00,
2013-07-25 13:33:00,80.0,62.0,30.03,ESE,107,1.0,-999.0,54,-99.99,,,-99.99,,2013-07-25 18:33:00,
2013-07-25 13:43:00,80.0,62.0,30.03,ESE,107,1.0,-999.0,54,-99.99,,,-99.99,,2013-07-25 18:43:00,
2013-07-25 13:52:00,81.0,63.0,30.04,ENE,60,0.0,-999.0,54,-99.99,,,-99.99,,2013-07-25 18:52:00,
2013-07-25 14:02:00,81.0,64.0,30.03,ENE,63,0.0,-999.0,57,-99.99,,,-99.99,,2013-07-25 19:02:00,
2013-07-25 14:12:00,81.0,64.0,30.03,ENE,63,0.0,-999.0,57,-99.99,,,-99.99,,2013-07-25 19:12:00,
2013-07-25 14:22:00,82.0,63.0,30.03,NE,38,1.0,-999.0,52,-99.99,,,-99.99,,2013-07-25 19:22:00,
2013-07-25 14:33:00,82.0,64.0,30.03,East,93,0.0,-999.0,55,-99.99,,,-99.99,,2013-07-25 19:33:00,
2013-07-25 14:43:00,82.0,64.0,30.03,East,93,0.0,-999.0,55,-99.99,,,-99.99,,2013-07-25 19:43:00,
2013-07-25 14:53:00,83.0,63.0,30.03,East,83,0.0,-999.0,51,-99.99,,,-99.99,,2013-07-25 19:53:00,
2013-07-25 15:02:00,83.0,64.0,30.03,East,81,0.0,-999.0,53,-99.99,,,-99.99,,2013-07-25 20:02:00,
2013-07-25 15:12:00,83.0,64.0,30.03,East,81,0.0,-999.0,53,-99.99,,,-99.99,,2013-07-25 20:12:00,
2013-07-25 15:22:00,83.0,65.0,30.03,East,92,0.0,-999.0,54,-99.99,,,-99.99,,2013-07-25 20:22:00,
2013-07-25 15:32:00,83.0,64.0,30.03,East,92,0.0,-999.0,53,-99.99,,,-99.99,,2013-07-25 20:32:00,
2013-07-25 15:43:00,83.0,64.0,30.03,East,92,0.0,-999.0,53,-99.99,,,-99.99,,2013-07-25 20:43:00,
2013-07-25 15:54:00,83.0,65.0,30.03,East,92,0.0,-999.0,54,-99.99,,,-99.99,,2013-07-25 20:54:00,
2013-07-25 16:03:00,84.0,64.0,30.03,East,92,0.0,-999.0,52,-99.99,,,-99.99,,2013-07-25 21:03:00,
2013-07-25 16:12:00,84.0,64.0,30.03,East,92,0.0,-999.0,52,-99.99,,,-99.99,,2013-07-25 21:12:00,
2013-07-25 16:22:00,84.0,66.0,30.02,East,80,0.0,-999.0,54,-99.99,,,-99.99,,2013-07-25 21:22:00,
2013-07-25 16:32:00,83.0,66.0,30.02,SE,139,0.0,-999.0,56,-99.99,,,-99.99,,2013-07-25 21:32:00,
2013-07-25 16:44:00,83.0,66.0,30.02,SE,139,0.0,-999.0,56,-99.99,,,-99.99,,2013-07-25 21:44:00,
2013-07-25 16:52:00,83.0,66.0,30.02,SE,139,0.0,-999.0,56,-99.99,,,-99.99,,2013-07-25 21:52:00,
2013-07-25 17:02:00,84.0,66.0,30.02,SE,139,0.0,-999.0,55,-99.99,,,-99.99,,2013-07-25 22:02:00,
2013-07-25 17:12:00,84.0,66.0,30.02,SE,139,0.0,-999.0,55,-99.99,,,-99.99,,2013-07-25 22:12:00,
2013-07-25 17:22:00,84.0,67.0,30.02,ENE,64,0.0,-999.0,56,-99.99,,,-99.99,,2013-07-25 22:22:00,
2013-07-25 17:32:00,84.0,66.0,30.01,ENE,64,0.0,-999.0,55,-99.99,,,-99.99,,2013-07-25 22:32:00,
2013-07-25 17:43:00,84.0,66.0,30.01,ENE,64,0.0,-999.0,55,-99.99,,,-99.99,,2013-07-25 22:43:00,
2013-07-25 17:52:00,85.0,66.0,30.01,ENE,64,0.0,-999.0,54,-99.99,,,-99.99,,2013-07-25 22:52:00,
2013-07-25 18:02:00,84.0,65.0,30.00,ENE,70,0.0,-999.0,53,-99.99,,,-99.99,,2013-07-25 23:02:00,
2013-07-25 18:12:00,84.0,65.0,30.00,ENE,70,0.0,-999.0,53,-99.99,,,-99.99,,2013-07-25 23:12:00,
2013-07-25 18:22:00,83.0,66.0,30.00,East,94,0.0,-999.0,56,-99.99,,,-99.99,,2013-07-25 23:22:00,
2013-07-25 18:32:00,84.0,68.0,30.00,East,94,0.0,-999.0,58,-99.99,,,-99.99,,2013-07-25 23:32:00,
2013-07-25 18:43:00,84.0,68.0,30.00,East,94,0.0,-999.0,58,-99.99,,,-99.99,,2013-07-25 23:43:00,
2013-07-25 18:52:00,84.0,67.0,30.00,East,94,0.0,-999.0,56,-99.99,,,-99.99,,2013-07-25 23:52:00,
2013-07-25 19:02:00,84.0,68.0,30.00,East,94,0.0,-999.0,59,-99.99,,,-99.99,,2013-07-26 00:02:00,
2013-07-25 19:12:00,84.0,68.0,30.00,East,94,0.0,-999.0,59,-99.99,,,-99.99,,2013-07-26 00:12:00,
2013-07-25 19:22:00,83.0,69.0,30.00,East,94,0.0,-999.0,63,-99.99,,,-99.99,,2013-07-26 00:22:00,
2013-07-25 19:33:00,82.0,69.0,30.00,East,94,0.0,-999.0,64,-99.99,,,-99.99,,2013-07-26 00:33:00,
2013-07-25 19:43:00,82.0,69.0,30.00,East,94,0.0,-999.0,64,-99.99,,,-99.99,,2013-07-26 00:43:00,
2013-07-25 19:52:00,81.0,69.0,29.99,East,94,0.0,-999.0,66,-99.99,,,-99.99,,2013-07-26 00:52:00,
2013-07-25 20:02:00,80.0,70.0,29.99,East,94,0.0,-999.0,71,-99.99,,,-99.99,,2013-07-26 01:02:00,
2013-07-25 20:12:00,80.0,70.0,29.99,East,94,0.0,-999.0,71,-99.99,,,-99.99,,2013-07-26 01:12:00,
2013-07-25 20:22:00,78.0,69.0,29.99,North,355,0.0,-999.0,73,-99.99,,,-99.99,,2013-07-26 01:22:00,
2013-07-25 20:32:00,76.0,69.0,29.98,North,355,0.0,-999.0,78,-99.99,,,-99.99,,2013-07-26 01:32:00,
2013-07-25 20:43:00,76.0,69.0,29.98,North,355,0.0,-999.0,78,-99.99,,,-99.99,,2013-07-26 01:43:00,
2013-07-25 20:52:00,75.0,68.0,29.98,North,355,0.0,-999.0,80,-99.99,,,-99.99,,2013-07-26 01:52:00,
2013-07-25 21:12:00,73.0,67.0,29.98,North,355,0.0,-999.0,82,-99.99,,,-99.99,,2013-07-26 02:12:00,
2013-07-25 21:22:00,72.0,67.0,29.98,North,355,0.0,-999.0,84,-99.99,,,-99.99,,2013-07-26 02:22:00,
2013-07-25 21:32:00,72.0,68.0,29.99,North,355,0.0,-999.0,86,-99.99,,,-99.99,,2013-07-26 02:32:00,
2013-07-25 21:43:00,72.0,68.0,29.99,North,355,0.0,-999.0,86,-99.99,,,-99.99,,2013-07-26 02:43:00,
2013-07-25 21:52:00,71.0,67.0,29.99,North,355,0.0,-999.0,88,-99.99,,,-99.99,,2013-07-26 02:52:00,
2013-07-25 22:02:00,70.0,67.0,29.99,North,355,0.0,-999.0,90,-99.99,,,-99.99,,2013-07-26 03:02:00,
2013-07-25 22:12:00,70.0,67.0,29.99,North,355,0.0,-999.0,90,-99.99,,,-99.99,,2013-07-26 03:12:00,
2013-07-25 22:22:00,69.0,66.0,30.00,North,355,0.0,-999.0,90,-99.99,,,-99.99,,2013-07-26 03:22:00,
2013-07-25 22:32:00,69.0,66.0,30.00,North,355,0.0,-999.0,91,-99.99,,,-99.99,,2013-07-26 03:32:00,
2013-07-25 22:43:00,69.0,66.0,30.00,North,355,0.0,-999.0,91,-99.99,,,-99.99,,2013-07-26 03:43:00,
2013-07-25 22:53:00,68.0,65.0,30.01,North,355,0.0,-999.0,91,-99.99,,,-99.99,,2013-07-26 03:53:00,
2013-07-25 23:02:00,68.0,66.0,30.01,North,355,0.0,-999.0,92,-99.99,,,-99.99,,2013-07-26 04:02:00,
2013-07-25 23:12:00,68.0,66.0,30.01,North,355,0.0,-999.0,92,-99.99,,,-99.99,,2013-07-26 04:12:00,
2013-07-25 23:22:00,68.0,66.0,30.01,North,355,0.0,-999.0,92,-99.99,,,-99.99,,2013-07-26 04:22:00,
2013-07-25 23:42:00,67.0,65.0,30.01,North,355,0.0,-999.0,92,-99.99,,,-99.99,,2013-07-26 04:42:00,
2013-07-25 23:53:00,67.0,65.0,30.02,North,355,0.0,-999.0,92,-99.99,,,-99.99,,2013-07-26 04:53:00,